| time (UTC) | temp F | wind direction | speed knots | gust knots | rain 1hr in | rain 24hr in | rain mn in | humidity % | barometer mb |
| 20260510021538 | 64 | 5 | 5.2 | 13.0 | 0.00 | 0.00 | 0.00 | 51 | 1027.3 |
| 20260510020026 | 63 | 51 | 5.2 | 17.4 | 0.00 | 0.00 | 0.00 | 52 | 1027.4 |
| 20260510014523 | 62 | 16 | 2.6 | 10.4 | 0.00 | 0.00 | 0.00 | 54 | 1027.5 |
| 20260510013024 | 62 | 30 | 1.7 | 10.4 | 0.00 | 0.00 | 0.00 | 55 | 1027.5 |
| 20260510011515 | 60 | 309 | 3.5 | 9.6 | 0.00 | 0.00 | 0.00 | 57 | 1027.6 |
| 20260510010010 | 59 | 21 | 3.5 | 10.4 | 0.00 | 0.00 | 0.00 | 59 | 1027.7 |
| 20260510004505 | 58 | 34 | 0.9 | 7.0 | 0.00 | 0.00 | 0.00 | 62 | 1027.8 |
| 20260510003103 | 56 | 42 | 0.9 | 4.3 | 0.00 | 0.00 | 0.00 | 66 | 1027.9 |
| 20260510001555 | 55 | 36 | 1.7 | 7.0 | 0.00 | 0.00 | 0.00 | 68 | 1028.0 |
| 20260510000058 | 53 | 13 | 0.0 | 2.6 | 0.00 | 0.00 | 0.00 | 71 | 1028.0 |
| 20260509233009 | 51 | 17 | 0.0 | 1.7 | 0.00 | 0.00 | 0.00 | 73 | 1027.9 |
| 20260509231507 | 50 | 42 | 0.0 | 1.7 | 0.00 | 0.00 | 0.00 | 73 | 1027.8 |
| 20260509230009 | 50 | 360 | 1.7 | 4.3 | 0.00 | 0.00 | 0.00 | 73 | 1027.8 |
| 20260509224508 | 50 | 38 | 0.0 | 2.6 | 0.00 | 0.00 | 0.00 | 72 | 1027.6 |
| 20260509223004 | 50 | 40 | 0.0 | 3.5 | 0.00 | 0.00 | 0.00 | 72 | 1027.4 |
| 20260509221502 | 50 | 12 | 0.0 | 1.7 | 0.00 | 0.00 | 0.00 | 73 | 1027.3 |
| 20260509220005 | 49 | 5 | 0.0 | 2.6 | 0.00 | 0.00 | 0.00 | 73 | 1027.3 |
| 20260509214631 | 50 | 351 | 0.0 | 3.5 | 0.00 | 0.00 | 0.00 | 73 | 1027.1 |
| 20260509213100 | 49 | 351 | 0.0 | 1.7 | 0.00 | 0.00 | 0.00 | 73 | 1026.9 |
| 20260509211556 | 49 | 342 | 0.0 | 3.5 | 0.00 | 0.00 | 0.00 | 73 | 1026.9 |
| 20260509210106 | 49 | 342 | 0.0 | 1.7 | 0.00 | 0.00 | 0.00 | 72 | 1026.9 |
| 20260509204555 | 50 | 341 | 0.0 | 2.6 | 0.00 | 0.00 | 0.00 | 71 | 1026.8 |
| 20260509203102 | 50 | 341 | 0.9 | 3.5 | 0.00 | 0.00 | 0.00 | 71 | 1026.7 |
| 20260509201553 | 50 | 350 | 0.9 | 3.5 | 0.00 | 0.00 | 0.00 | 70 | 1026.6 |
| 20260509200055 | 50 | 343 | 0.9 | 3.5 | 0.00 | 0.00 | 0.00 | 70 | 1026.5 |
| 20260509194552 | 50 | 342 | 0.0 | 3.5 | 0.00 | 0.00 | 0.00 | 70 | 1026.5 |
| 20260509193056 | 50 | 96 | 0.9 | 1.7 | 0.00 | 0.00 | 0.00 | 70 | 1026.5 |
| 20260509191600 | 51 | 96 | 0.0 | 1.7 | 0.00 | 0.00 | 0.00 | 70 | 1026.5 |
| 20260509190053 | 50 | 96 | 0.0 | 0.0 | 0.00 | 0.00 | 0.00 | 70 | 1026.5 |
| 20260509184558 | 50 | 96 | 0.0 | 0.0 | 0.00 | 0.00 | 0.00 | 69 | 1026.7 |
| 20260509183052 | 50 | 95 | 0.0 | 1.7 | 0.00 | 0.00 | 0.00 | 70 | 1026.6 |
| 20260509181545 | 50 | 94 | 0.0 | 0.9 | 0.00 | 0.00 | 0.00 | 69 | 1026.6 |
| 20260509180044 | 50 | 94 | 0.0 | 0.9 | 0.00 | 0.00 | 0.00 | 70 | 1026.4 |
| 20260509174559 | 50 | 92 | 0.0 | 0.9 | 0.00 | 0.00 | 0.00 | 70 | 1026.4 |
| 20260509173049 | 49 | 87 | 0.0 | 0.9 | 0.00 | 0.00 | 0.00 | 70 | 1026.4 |
| 20260509171538 | 48 | 88 | 0.0 | 0.9 | 0.00 | 0.00 | 0.00 | 71 | 1026.4 |
| 20260509170034 | 46 | 90 | 0.0 | 0.0 | 0.00 | 0.00 | 0.00 | 72 | 1026.5 |
| 20260509164530 | 45 | 88 | 0.0 | 0.0 | 0.00 | 0.00 | 0.00 | 73 | 1026.6 |
| 20260509163037 | 45 | 87 | 0.0 | 0.0 | 0.00 | 0.00 | 0.00 | 71 | 1026.6 |
| 20260509161526 | 45 | 88 | 0.0 | 0.0 | 0.00 | 0.00 | 0.00 | 70 | 1026.5 |
| 20260509160023 | 45 | 89 | 0.0 | 0.0 | 0.00 | 0.00 | 0.00 | 72 | 1026.4 |
| 20260509154525 | 45 | 88 | 0.0 | 0.0 | 0.00 | 0.00 | 0.00 | 70 | 1026.3 |
| 20260509153031 | 45 | 89 | 0.0 | 0.0 | 0.00 | 0.00 | 0.00 | 70 | 1026.3 |
| 20260509151519 | 46 | 88 | 0.0 | 0.0 | 0.00 | 0.00 | 0.00 | 69 | 1026.3 |
| 20260509150019 | 46 | 89 | 0.0 | 0.0 | 0.00 | 0.00 | 0.00 | 68 | 1026.4 |
| 20260509144524 | 47 | 83 | 0.0 | 0.0 | 0.00 | 0.00 | 0.00 | 67 | 1026.6 |
| 20260509143017 | 47 | 88 | 0.0 | 0.0 | 0.00 | 0.00 | 0.00 | 67 | 1026.4 |
| 20260509141516 | 47 | 75 | 0.0 | 0.0 | 0.00 | 0.00 | 0.00 | 66 | 1026.5 |
| 20260509140015 | 47 | 88 | 0.0 | 0.0 | 0.00 | 0.00 | 0.00 | 68 | 1026.4 |
| 20260509134515 | 47 | 88 | 0.0 | 0.0 | 0.00 | 0.00 | 0.00 | 67 | 1026.4 |
| 20260509133014 | 47 | 86 | 0.0 | 0.0 | 0.00 | 0.00 | 0.00 | 67 | 1026.5 |
| 20260509131514 | 47 | 84 | 0.0 | 0.0 | 0.00 | 0.00 | 0.00 | 66 | 1026.5 |
| 20260509130024 | 48 | 87 | 0.0 | 0.0 | 0.00 | 0.00 | 0.00 | 65 | 1026.5 |
| 20260509124508 | 48 | 88 | 0.0 | 0.0 | 0.00 | 0.00 | 0.00 | 65 | 1026.4 |
| 20260509123008 | 49 | 86 | 0.0 | 0.0 | 0.00 | 0.00 | 0.00 | 64 | 1026.4 |
| 20260509121510 | 49 | 78 | 0.0 | 0.0 | 0.00 | 0.00 | 0.00 | 64 | 1026.5 |
| 20260509120006 | 49 | 88 | 0.0 | 0.0 | 0.00 | 0.00 | 0.00 | 61 | 1026.4 |
| 20260509114506 | 50 | 88 | 0.0 | 0.0 | 0.00 | 0.00 | 0.00 | 59 | 1026.6 |
| 20260509113005 | 51 | 72 | 0.0 | 0.0 | 0.00 | 0.00 | 0.00 | 56 | 1026.6 |
| 20260509111505 | 53 | 88 | 0.0 | 0.0 | 0.00 | 0.00 | 0.00 | 54 | 1026.5 |
| 20260509110005 | 54 | 88 | 0.0 | 0.0 | 0.00 | 0.00 | 0.00 | 52 | 1026.5 |
| 20260509104509 | 55 | 88 | 0.0 | 0.0 | 0.00 | 0.00 | 0.00 | 50 | 1026.4 |
| 20260509103003 | 56 | 96 | 0.0 | 0.0 | 0.00 | 0.00 | 0.00 | 48 | 1026.2 |
| 20260509101509 | 59 | 96 | 0.0 | 1.7 | 0.00 | 0.00 | 0.00 | 46 | 1026.1 |
| 20260509100002 | 61 | 96 | 0.9 | 2.6 | 0.00 | 0.00 | 0.00 | 43 | 1025.9 |
| 20260509094501 | 63 | 71 | 0.9 | 5.2 | 0.00 | 0.00 | 0.00 | 41 | 1025.8 |
| 20260509093002 | 65 | 77 | 2.6 | 4.3 | 0.00 | 0.00 | 0.00 | 37 | 1025.6 |
| 20260509091608 | 67 | 61 | 2.6 | 5.2 | 0.00 | 0.00 | 0.00 | 36 | 1025.5 |
| 20260509090107 | 69 | 82 | 1.7 | 6.1 | 0.00 | 0.00 | 0.00 | 34 | 1025.5 |
| 20260509084603 | 70 | 49 | 1.7 | 7.8 | 0.00 | 0.00 | 0.00 | 33 | 1025.3 |
| 20260509083103 | 70 | 86 | 2.6 | 9.6 | 0.00 | 0.00 | 0.00 | 33 | 1025.1 |
| 20260509081557 | 71 | 40 | 2.6 | 10.4 | 0.00 | 0.00 | 0.00 | 33 | 1024.9 |
| 20260509080059 | 71 | 82 | 2.6 | 7.8 | 0.00 | 0.00 | 0.00 | 32 | 1024.9 |
| 20260509074558 | 71 | 53 | 1.7 | 8.7 | 0.00 | 0.00 | 0.00 | 32 | 1024.8 |
| 20260509073056 | 71 | 98 | 5.2 | 8.7 | 0.00 | 0.00 | 0.00 | 31 | 1024.9 |
| 20260509071554 | 71 | 92 | 3.5 | 8.7 | 0.00 | 0.00 | 0.00 | 32 | 1024.9 |
| 20260509070054 | 71 | 41 | 2.6 | 7.0 | 0.00 | 0.00 | 0.00 | 31 | 1025.0 |
| 20260509064553 | 71 | 44 | 2.6 | 9.6 | 0.00 | 0.00 | 0.00 | 32 | 1025.0 |
| 20260509063051 | 71 | 45 | 2.6 | 8.7 | 0.00 | 0.00 | 0.00 | 33 | 1025.1 |
| 20260509061549 | 71 | 159 | 3.5 | 8.7 | 0.00 | 0.00 | 0.00 | 32 | 1025.0 |
| 20260509060105 | 71 | 44 | 1.7 | 7.8 | 0.00 | 0.00 | 0.00 | 32 | 1025.2 |
| 20260509054549 | 71 | 47 | 2.6 | 7.8 | 0.00 | 0.00 | 0.00 | 32 | 1025.5 |
| 20260509053109 | 70 | 71 | 3.5 | 7.8 | 0.00 | 0.00 | 0.00 | 33 | 1025.6 |
| 20260509051550 | 70 | 71 | 1.7 | 8.7 | 0.00 | 0.00 | 0.00 | 34 | 1025.8 |
| 20260509050040 | 70 | 28 | 6.1 | 11.3 | 0.00 | 0.00 | 0.00 | 34 | 1026.2 |
| 20260509044541 | 70 | 49 | 2.6 | 8.7 | 0.00 | 0.00 | 0.00 | 35 | 1026.4 |
| 20260509043036 | 69 | 355 | 2.6 | 9.6 | 0.00 | 0.00 | 0.00 | 36 | 1026.7 |
| 20260509041531 | 69 | 18 | 4.3 | 8.7 | 0.00 | 0.00 | 0.00 | 38 | 1027.1 |
| 20260509040031 | 68 | 324 | 1.7 | 7.8 | 0.00 | 0.00 | 0.00 | 40 | 1027.5 |
| 20260509034524 | 67 | 13 | 3.5 | 7.8 | 0.00 | 0.00 | 0.00 | 42 | 1027.7 |
| 20260509033123 | 67 | 59 | 3.5 | 11.3 | 0.00 | 0.00 | 0.00 | 42 | 1028.0 |
| 20260509031516 | 66 | 348 | 2.6 | 16.5 | 0.00 | 0.00 | 0.00 | 43 | 1028.1 |
| 20260509030026 | 65 | 21 | 1.7 | 9.6 | 0.00 | 0.00 | 0.00 | 47 | 1028.4 |
| 20260509024514 | 64 | 46 | 2.6 | 9.6 | 0.00 | 0.00 | 0.00 | 47 | 1028.6 |
| 20260509023010 | 63 | 22 | 3.5 | 9.6 | 0.00 | 0.00 | 0.00 | 49 | 1028.8 |